FENGYUN 1C DEB, 38513

Orbit data source: Space-Track

FENGYUN 1C DEB, 38513 is space debris in SSO originally from a launch on Mon, 10 May 1999 UTC launched from the Taiyaun Space Center, China (TSC). Fengyun 1C debris stems from the Chinese weather satellite Fengyun-1C, which was intentionally destroyed by a Chinese anti-satellite missile in 2007. This event dramatically increased the amount of space debris, with thousands of trackable fragments posing hazards to satellites and human spaceflight. The Fengyun 1C debris cloud has become a focal point in discussions about space sustainability and the need for international regulations to prevent the creation of new debris.

Loading next visibility...
Identifier
38513, 1999-025ESY
Orbit
SSO
Country
Flag of CNCN / PRC
Related business
Manufacturer
Unknown
Mission
Spacecraft
Bus & Motor
Unknown
Mass
Unknown
Launch date (UTC)
1999-05-10 (26 years ago)
Launch vehicle
Unknown
Launch site
Taiyaun Space Center, China (TSC)
Object type
Payload
Rocket body
Debris
Shape & HBR
Unknown shape, 0.1 m
Radar Cross Section
Small (<0.1 m²)

Expand to show TLE details & history
Last TLE update: 4 days ago

TLE from 4 days ago
0 FENGYUN 1C DEB
1 38513U 99025ESY 25306.00383095  .00018130  00000-0  16148-2 0  9994
2 38513  97.6294 209.6131 0257231  18.4323 342.5998 14.74022393630578
Epoch: 2025-11-02T00:05Z
TLE epoch observation values (Epoch: 2025-11-02T00:05:30.994Z)
Latitude
0.00005°
Longitude
166.70816°
Altitude
479.204 km
Speed
7.719 km/s
True Right ascension
13h 58m 27s
True Declination
0° 00' 00"
Sunlit
Object was in daylight at epoch
Visualization orbit readout
Latitude
Unknown
Longitude
Unknown
Altitude
Unknown
Speed
Unknown
Apparent Right ascension
Unknown
Apparent Declination
Unknown
Sunlit
N/A
Visualization observer readout
Local Sidereal Time
00:08:11
Azimuth
Unknown
Elevation
Unknown
Doppler factor
Unknown
Orbital elements
Apogee altitude
825.955 km
Perigee altitude
464.626 km
Semi-major axis
7,023.427 km
Eccentricity
0.02572
Inclination
97.6294°
RAAN
209.6131°
Arg. of periapsis
18.4323°
True anomaly
341.6905°
Mean anomaly
342.5998°
Eccentric anomaly
342.14798°
Mean motion
3.68739 °/min
Orbital period
97.63 mins
BSTAR
0.0016148
Loading maneuver chart data...
Computing Atmospheric mass density...

Documentation

Showing up to 5 results
|